User: anonymous   Login
Location: Unspecified
(0.0000°N, 0.0000°E)
Time: 23:20:57
(UTC+00:00)
Language:

CICERO 6 - Orbit

View from above orbital plane
View from above orbital plane
View from above satellite
View from above satellite

Ground track
Ground track

The orbit data is extracted from the following two-line orbital elements,

1 42793U 17036AE  19082.16188997  .00000956  00000-0  44312-4 0  9999
2 42793  97.3611 142.0319 0010640 170.6516 189.4920 15.22400450 97036
Epoch (UTC): 23 March 2019 03:53:07
Eccentricity: 0.0010640
inclination: 97.3611°
perigee height: 491 km
apogee height: 506 km
right ascension of ascending node: 142.0319°
argument of perigee: 170.6516°
revolutions per day: 15.22400450
mean anomaly at epoch: 189.4920°
orbit number at epoch: 9703

The dashed part of the orbit path shows where the satellite is in the earth's shadow,  

DLR